Wind_Speed
7 6 5 3 2 2 1 1 3 3 4 4 4 5 7 7 7 7 8 6 4 3 3 6 8 11 12 13 13 13 13 12 10 9 8 8 7 6 4 4 3 4 5 8 12 15 17 20 20
7 6 4 3 1 2 1 2 4 6 7 6 5 5 6 7 6 7 7 6 4 2 2 4 7 9 11 12 12 12 12 12 11 11 10 9 8 7 5 4 3 3 4 6 8 13 17 19 21
7 5 5 3 3 2 2 4 6 9 9 8 8 6 6 7 5 6 6 5 3 2 2 3 5 8 9 11 11 12 12 12 12 12 11 10 9 8 6 4 3 3 3 3 5 8 13 18 20
7 6 5 4 3 3 4 5 8 9 9 9 9 9 7 6 4 4 5 3 2 1 1 2 4 7 8 10 11 12 12 12 13 13 13 12 10 8 6 5 4 3 2 2 2 4 9 15 19
8 8 7 6 5 2 3 4 6 7 8 9 10 10 9 7 5 4 3 2 1 1 1 1 3 5 7 9 10 11 12 12 13 13 13 13 11 9 7 6 5 3 2 2 1 3 5 11 16
10 9 8 7 5 1 2 3 5 6 8 8 9 11 10 9 6 4 3 1 1 1 1 1 2 4 6 8 9 10 11 12 13 13 13 13 12 10 8 6 6 4 3 2 2 3 4 8 13
12 10 8 7 5 2 1 3 5 7 8 9 10 11 10 9 7 5 3 1 1 2 3 3 3 4 6 7 8 9 10 11 12 13 13 13 12 11 9 7 6 5 4 3 3 4 5 6 9
14 12 9 8 6 4 1 3 4 6 8 9 10 10 9 9 8 6 4 2 2 3 4 4 4 4 5 7 8 8 9 10 11 12 12 12 11 11 10 8 7 6 5 5 5 5 6 7 8
15 13 11 10 8 5 3 4 6 6 7 8 9 9 9 9 8 7 5 4 4 4 5 6 6 6 6 7 8 8 9 9 10 11 12 11 10 10 10 9 7 6 6 6 7 7 8 8 9
16 15 13 10 9 7 5 6 8 7 7 7 8 8 9 9 8 7 6 7 7 7 7 8 8 9 9 9 9 9 8 9 9 10 11 10 10 10 10 9 8 7 7 7 7 8 8 10 10
17 16 16 15 12 10 9 9 11 12 10 9 9 9 10 9 9 8 8 8 9 10 11 11 11 11 11 11 11 10 9 9 9 9 10 10 10 9 9 9 8 8 7 7 8 8 8 10 12
19 18 18 17 15 14 14 14 14 15 16 14 13 12 12 11 10 11 11 10 11 12 13 14 14 14 14 14 13 12 11 10 9 9 10 10 10 10 10 9 9 8 7 8 8 8 9 11 13
20 20 20 20 20 18 18 18 17 18 19 19 18 17 16 14 13 13 13 13 13 14 14 14 15 16 16 15 15 14 13 12 10 10 10 10 10 10 9 9 9 9 8 8 8 9 10 11 12
22 22 22 22 23 23 22 21 21 21 23 23 22 21 20 19 17 16 16 15 15 16 16 16 15 16 16 16 15 15 15 13 12 11 10 10 10 10 9 9 10 9 8 8 8 9 10 11 12
25 24 24 25 27 27 27 24 24 25 26 26 26 25 24 23 22 20 19 18 17 17 17 16 16 16 17 17 17 16 16 15 14 12 11 11 10 11 10 10 11 10 10 9 9 10 10 11 13
28 28 28 29 31 31 31 27 27 29 29 29 29 28 27 27 26 24 23 21 19 18 18 18 17 17 17 17 17 17 17 16 15 14 13 12 11 11 10 10 11 11 11 10 10 11 12 12 13
31 32 32 33 34 34 35 32 31 32 31 31 31 30 29 29 29 27 26 25 22 20 19 18 18 18 18 18 18 17 17 17 16 15 15 14 13 13 12 11 12 12 12 11 11 12 13 13 13
34 35 36 37 37 37 38 36 34 34 33 32 32 32 31 30 30 30 29 27 25 23 21 19 19 19 19 20 20 19 18 18 17 17 16 15 15 15 15 14 14 14 14 13 12 12 13 14 15
36 37 38 39 40 41 40 40 38 37 37 35 34 33 33 32 31 31 31 30 27 25 24 22 22 21 21 21 21 20 19 18 19 19 18 17 17 17 16 16 16 16 16 15 14 14 14 14 16
36 38 39 40 41 43 43 41 39 39 39 38 38 37 36 35 32 32 32 31 29 27 26 25 25 24 23 23 23 22 20 19 19 19 19 19 18 18 18 17 17 17 18 17 17 17 16 15 16
35 38 39 40 40 41 43 41 38 38 40 40 39 38 36 35 34 33 33 32 31 29 27 27 28 28 26 25 24 23 22 20 19 19 19 19 18 19 19 19 20 19 19 20 20 19 18 17 18
34 35 37 38 39 39 40 41 35 36 36 36 35 34 33 32 33 32 31 32 31 30 30 30 31 30 28 26 24 23 22 21 20 19 19 20 20 20 20 21 22 21 21 22 23 22 20 19 19
32 32 33 34 35 35 34 37 32 33 33 32 31 31 29 28 28 28 29 31 32 32 30 31 31 32 30 27 24 22 22 21 21 20 20 21 21 21 21 23 24 23 23 24 24 22 21 21 22
32 32 33 32 31 30 28 29 28 28 28 29 29 28 27 25 24 25 28 30 31 31 30 30 30 29 28 26 24 22 21 21 21 21 21 22 22 23 23 24 25 25 25 26 25 25 25 24 23
33 33 33 32 29 26 24 24 24 25 25 25 25 25 24 24 24 23 24 26 28 29 29 28 28 28 27 24 23 22 21 21 22 22 23 23 24 24 24 25 26 26 26 27 27 27 26 25 25
34 34 33 32 29 25 22 22 22 23 22 22 22 22 22 22 23 22 23 24 25 27 27 25 25 25 23 22 21 21 21 21 22 22 23 24 24 25 26 26 26 26 26 27 27 27 27 26 26
37 34 33 32 29 26 22 21 22 21 20 20 21 21 23 22 22 22 23 24 24 26 25 23 21 20 19 19 18 19 20 21 23 23 23 24 24 25 26 26 26 25 25 25 26 26 26 26 25
37 34 31 29 27 25 23 22 22 21 20 20 21 22 22 22 22 22 22 22 23 22 20 19 18 17 16 17 18 19 21 22 23 23 24 24 24 25 25 25 24 24 24 24 24 25 25 25 24
30 30 28 26 25 23 22 20 20 19 18 20 20 20 20 21 22 22 23 23 21 17 17 16 16 16 16 17 18 19 21 22 23 23 23 23 23 23 23 23 23 22 22 22 22 23 23 23 23
19 20 21 21 21 21 19 18 17 16 14 15 17 17 17 17 17 18 18 15 14 12 13 14 14 15 16 16 18 20 21 21 22 22 21 21 21 21 21 21 21 21 20 20 20 20 21 21 21
Wind_Direction
168 165 160 156 167 191 173 30 21 10 6 8 343 318 303 305 315 311 313 326 329 334 356 14 17 18 19 19 19 18 17 15 12 5 356 349 344 340 331 316 298 268 252 243 237 231 228 224 222
182 181 176 184 215 191 130 54 39 26 19 17 3 343 315 318 325 310 309 320 322 323 342 9 14 16 18 19 17 16 17 16 13 8 0 353 347 339 327 313 304 285 264 252 240 229 225 221 218
194 189 190 207 243 162 108 64 48 38 26 14 14 6 342 335 331 306 304 311 313 310 333 4 11 14 16 16 14 14 14 15 14 11 7 1 352 342 331 318 304 294 274 251 237 223 220 216 215
199 201 206 225 227 150 96 64 51 45 32 19 18 12 3 354 341 311 300 300 289 279 314 359 9 12 13 12 11 11 12 13 13 12 11 7 360 349 336 322 309 299 282 243 214 208 212 212 212
197 206 216 228 224 162 99 70 53 46 34 24 19 12 7 5 356 327 301 285 252 250 245 348 6 9 8 8 8 8 8 11 12 12 11 10 4 354 339 323 309 298 283 246 193 189 200 208 209
198 207 219 225 214 175 70 52 47 40 33 20 15 12 9 8 4 350 323 284 229 234 232 279 337 354 359 359 360 1 5 7 10 11 10 10 7 357 344 325 309 296 282 253 210 186 187 197 206
199 212 217 219 205 179 4 5 23 24 25 19 14 6 7 10 12 4 348 302 234 244 249 264 300 329 342 348 351 354 359 2 5 6 8 9 8 2 351 334 314 295 276 254 226 206 196 197 202
202 210 217 232 215 209 263 327 348 5 8 11 8 357 358 5 10 8 355 321 259 253 258 262 279 305 320 329 337 344 350 355 359 2 5 8 8 4 357 345 326 302 277 255 236 223 214 204 202
206 214 224 238 232 232 254 297 316 341 350 357 356 350 349 352 359 359 349 323 285 261 255 259 269 287 301 309 317 326 337 345 350 356 1 5 4 4 1 352 337 313 284 261 247 236 226 219 211
216 224 233 245 243 250 267 289 303 314 329 340 341 340 338 340 342 341 330 313 298 280 266 263 268 277 286 294 300 308 319 331 338 346 354 2 3 3 4 357 346 325 296 271 257 246 234 226 221
225 233 243 256 265 271 280 287 297 302 305 312 320 326 328 329 327 322 314 304 295 287 280 275 275 277 281 285 289 294 303 314 323 332 342 353 359 359 2 1 351 334 312 288 269 254 240 229 225
235 240 249 260 271 279 284 287 291 295 298 300 306 313 317 318 317 310 301 293 286 281 279 279 278 279 279 280 283 286 291 299 309 320 330 341 348 352 355 356 351 339 320 299 281 262 242 230 227
244 248 254 262 271 276 279 283 287 291 292 295 299 303 305 305 304 300 293 286 281 278 277 277 276 277 277 278 280 282 285 290 298 308 319 328 335 344 347 348 347 343 328 307 286 266 251 239 232
247 251 256 261 265 268 270 275 282 285 287 290 292 295 296 296 296 295 290 284 278 275 273 273 274 274 275 276 277 280 283 287 291 297 307 313 318 328 336 338 341 339 330 312 289 271 260 249 241
252 253 256 260 262 264 266 270 276 277 280 283 286 289 290 291 293 293 291 287 282 278 273 271 271 273 274 276 278 280 282 284 288 290 293 296 302 312 322 328 332 333 329 315 298 280 264 250 244
256 257 258 260 262 265 267 269 271 273 277 279 283 285 287 289 291 291 292 290 287 282 276 274 273 272 272 274 276 278 280 282 283 284 285 286 290 296 306 314 319 323 323 314 301 285 271 258 247
259 260 261 261 265 267 269 270 270 272 274 277 280 281 283 287 288 289 289 291 290 287 282 277 275 274 272 272 272 274 276 278 279 280 281 282 283 287 290 299 304 312 315 311 302 291 279 268 258
260 262 262 263 264 266 267 269 268 269 271 275 277 278 281 284 285 285 287 288 289 288 285 281 277 275 273 272 271 272 273 275 276 278 279 277 277 281 282 286 292 299 305 304 298 290 280 271 264
263 264 265 265 266 266 266 267 268 268 270 271 271 273 276 280 282 282 284 285 286 287 285 282 279 276 275 273 272 271 271 273 274 275 275 274 273 274 277 280 284 289 294 296 294 287 281 270 264
266 266 266 266 266 266 266 266 267 268 268 268 269 271 273 276 278 279 281 281 280 282 281 280 278 277 275 272 271 269 268 269 271 271 273 272 270 269 272 274 277 279 284 285 285 283 278 270 265
266 267 267 267 267 268 268 266 267 266 265 265 266 267 270 271 273 274 274 274 274 275 276 276 276 276 273 268 266 267 268 270 270 270 269 270 270 269 269 271 272 272 275 277 277 277 274 271 266
271 271 271 271 271 270 271 269 265 264 264 263 263 263 265 267 268 269 267 265 265 265 266 270 273 271 269 266 264 266 268 268 270 270 269 269 269 270 270 271 273 273 271 270 273 269 268 266 263
280 278 277 277 277 277 276 275 270 265 262 260 259 259 260 261 262 263 262 260 259 257 257 263 266 266 263 264 265 266 267 269 269 269 268 269 270 271 271 272 272 271 270 269 268 265 263 263 261
287 284 282 281 282 283 280 278 274 268 263 258 255 253 253 252 252 256 258 257 255 253 254 258 260 260 261 261 261 264 266 269 270 270 269 270 271 272 272 272 271 270 269 269 266 263 263 262 261
289 287 286 284 283 285 281 275 270 268 262 253 247 246 245 244 244 248 251 248 247 250 251 250 252 254 256 259 261 263 267 269 270 271 270 270 271 272 272 272 271 270 268 266 265 264 263 260 258
285 283 282 281 282 281 275 269 266 262 258 250 241 239 239 237 237 238 241 242 243 246 246 244 247 252 254 257 261 264 267 270 270 271 271 271 272 272 273 273 272 270 267 265 263 263 263 261 257
280 275 275 275 273 274 271 267 262 259 255 250 245 242 238 236 234 234 232 231 236 237 238 240 245 250 254 256 261 265 267 269 272 272 272 273 274 274 274 273 272 270 268 265 262 261 261 260 257
274 271 266 264 265 268 264 261 262 261 254 251 246 245 241 239 239 236 229 227 229 232 234 236 242 246 249 256 262 266 269 271 272 274 275 276 276 275 274 274 273 271 268 265 262 260 260 259 254
271 264 260 256 255 256 258 260 262 262 258 253 250 248 242 240 240 236 228 226 228 232 235 240 245 250 257 259 263 267 270 272 273 274 275 276 275 275 274 272 271 269 266 263 261 260 258 257 256
277 262 252 250 250 251 255 259 263 271 269 259 253 248 245 243 247 241 234 236 234 242 246 246 245 251 257 263 269 272 275 275 274 273 274 275 274 274 273 270 269 267 265 262 260 259 257 256 254
Height
5900 5900 5901 5902 5903 5902 5901 5901 5900 5900 5900 5900 5899 5898 5896 5897 5897 5898 5895 5894 5894 5895 5895 5895 5894 5894 5892 5891 5890 5888 5887 5886 5885 5883 5882 5881 5880 5879 5879 5878 5877 5877 5876 5876 5875 5876 5877 5879 5881
5900 5901 5902 5902 5902 5902 5901 5901 5900 5900 5900 5899 5899 5898 5896 5896 5896 5895 5893 5893 5894 5894 5895 5895 5894 5894 5893 5892 5890 5889 5888 5886 5885 5884 5882 5881 5879 5878 5878 5877 5876 5875 5874 5874 5873 5873 5875 5876 5879
5900 5901 5902 5902 5902 5902 5901 5901 5901 5900 5899 5899 5898 5897 5896 5896 5896 5894 5893 5893 5893 5893 5894 5894 5894 5894 5893 5892 5891 5889 5888 5887 5885 5884 5882 5881 5879 5878 5877 5876 5875 5874 5873 5872 5872 5872 5872 5874 5877
5900 5901 5902 5902 5901 5901 5901 5901 5901 5901 5901 5899 5898 5897 5896 5896 5895 5894 5892 5892 5893 5893 5893 5894 5894 5894 5893 5892 5891 5890 5888 5887 5885 5884 5882 5880 5879 5877 5876 5875 5874 5874 5873 5872 5871 5871 5872 5873 5876
5900 5901 5901 5901 5901 5901 5901 5901 5902 5902 5901 5899 5898 5897 5896 5896 5894 5893 5892 5892 5892 5892 5893 5893 5894 5894 5893 5892 5891 5890 5888 5887 5885 5884 5882 5880 5878 5877 5875 5874 5874 5873 5873 5872 5872 5871 5872 5873 5875
5900 5900 5901 5901 5901 5900 5901 5901 5902 5902 5901 5900 5899 5897 5896 5895 5894 5892 5892 5892 5892 5892 5893 5893 5893 5893 5893 5892 5891 5890 5888 5887 5885 5884 5882 5880 5878 5877 5875 5874 5873 5873 5872 5872 5872 5872 5872 5873 5874
5900 5900 5899 5900 5900 5900 5900 5901 5901 5901 5901 5900 5899 5897 5896 5896 5894 5892 5891 5892 5892 5892 5892 5893 5893 5893 5892 5892 5891 5889 5888 5886 5885 5883 5882 5880 5878 5876 5875 5873 5872 5872 5872 5872 5872 5872 5873 5873 5874
5898 5900 5898 5898 5899 5899 5900 5900 5900 5901 5900 5900 5899 5898 5897 5896 5894 5893 5892 5892 5892 5892 5892 5892 5893 5892 5892 5891 5890 5889 5888 5886 5884 5883 5881 5880 5878 5876 5874 5873 5872 5871 5871 5872 5872 5872 5873 5873 5874
5898 5900 5898 5897 5898 5899 5899 5899 5900 5900 5900 5899 5899 5898 5897 5896 5895 5893 5892 5892 5892 5892 5892 5892 5892 5892 5891 5891 5889 5888 5887 5885 5884 5882 5881 5879 5877 5876 5874 5872 5871 5871 5870 5870 5871 5871 5872 5873 5874
5898 5898 5898 5897 5897 5898 5898 5898 5899 5899 5899 5899 5899 5898 5896 5896 5895 5894 5893 5892 5891 5891 5891 5891 5891 5891 5890 5889 5888 5887 5886 5885 5883 5881 5880 5878 5877 5875 5873 5872 5871 5870 5869 5869 5870 5870 5871 5872 5873
5897 5897 5897 5897 5896 5897 5897 5897 5897 5897 5897 5898 5897 5897 5896 5895 5894 5894 5893 5892 5891 5890 5889 5889 5889 5889 5888 5887 5887 5886 5885 5884 5882 5880 5879 5877 5876 5874 5873 5871 5870 5869 5868 5868 5869 5869 5870 5870 5871
5896 5896 5896 5896 5895 5895 5895 5895 5895 5894 5894 5894 5894 5894 5894 5893 5893 5892 5892 5891 5891 5889 5888 5887 5886 5886 5886 5885 5884 5883 5883 5882 5881 5879 5877 5876 5875 5873 5871 5870 5869 5868 5867 5867 5867 5868 5868 5868 5869
5893 5894 5894 5894 5894 5893 5893 5892 5892 5891 5890 5889 5890 5890 5890 5890 5890 5890 5890 5889 5889 5888 5886 5885 5884 5883 5883 5882 5882 5881 5880 5879 5879 5877 5876 5875 5874 5872 5871 5869 5868 5867 5866 5866 5866 5866 5866 5866 5867
5890 5891 5891 5891 5891 5890 5890 5890 5889 5888 5886 5885 5886 5886 5886 5886 5887 5887 5887 5886 5885 5885 5884 5883 5882 5881 5880 5879 5879 5878 5877 5877 5876 5875 5874 5873 5872 5871 5870 5868 5867 5866 5865 5864 5864 5864 5864 5864 5864
5885 5887 5887 5887 5886 5885 5885 5887 5886 5884 5882 5882 5881 5881 5881 5881 5881 5882 5882 5882 5881 5881 5880 5880 5879 5878 5877 5876 5875 5875 5874 5874 5873 5873 5872 5871 5870 5869 5868 5867 5865 5864 5863 5862 5861 5862 5862 5862 5862
5880 5881 5882 5881 5880 5880 5881 5883 5881 5879 5878 5877 5877 5876 5875 5876 5876 5876 5877 5877 5877 5876 5876 5876 5875 5874 5874 5873 5872 5871 5871 5870 5870 5870 5869 5869 5868 5867 5866 5865 5863 5862 5861 5860 5859 5859 5859 5860 5860
5874 5875 5875 5875 5873 5873 5873 5875 5876 5874 5873 5872 5872 5871 5870 5869 5870 5870 5870 5871 5871 5871 5871 5871 5871 5870 5870 5869 5869 5868 5867 5867 5866 5866 5865 5865 5864 5863 5863 5862 5861 5860 5859 5858 5857 5856 5856 5856 5857
5868 5867 5867 5867 5866 5865 5865 5866 5868 5867 5866 5866 5865 5864 5863 5863 5863 5863 5863 5864 5865 5865 5865 5866 5865 5865 5865 5865 5864 5864 5863 5862 5862 5861 5861 5861 5860 5860 5859 5859 5858 5856 5855 5854 5854 5853 5852 5852 5853
5859 5858 5858 5858 5857 5857 5857 5857 5859 5859 5858 5858 5857 5857 5856 5856 5856 5857 5857 5857 5858 5859 5859 5859 5859 5859 5859 5859 5859 5858 5858 5858 5857 5856 5856 5856 5856 5855 5855 5854 5854 5853 5852 5851 5850 5849 5849 5849 5849
5851 5849 5848 5848 5847 5846 5846 5848 5850 5849 5848 5848 5848 5848 5849 5849 5849 5849 5850 5850 5851 5852 5852 5853 5853 5853 5853 5853 5853 5853 5853 5852 5852 5851 5851 5851 5851 5850 5850 5850 5849 5849 5847 5847 5846 5845 5845 5845 5845
5842 5840 5838 5838 5836 5835 5835 5838 5840 5839 5837 5838 5839 5840 5840 5841 5842 5842 5842 5843 5844 5845 5845 5846 5846 5846 5846 5847 5847 5846 5847 5847 5846 5846 5846 5846 5845 5845 5845 5845 5844 5843 5843 5842 5841 5841 5840 5840 5841
5833 5831 5829 5827 5827 5826 5825 5825 5831 5828 5827 5827 5828 5830 5831 5832 5833 5834 5835 5835 5836 5837 5838 5839 5839 5839 5840 5840 5840 5841 5841 5841 5841 5841 5841 5840 5840 5840 5839 5839 5838 5838 5837 5837 5836 5836 5836 5835 5835
5825 5822 5821 5819 5817 5817 5816 5815 5819 5816 5817 5817 5818 5820 5822 5823 5825 5826 5826 5828 5828 5829 5830 5832 5832 5832 5833 5834 5835 5835 5836 5835 5835 5835 5835 5835 5834 5834 5833 5833 5832 5832 5831 5831 5830 5830 5830 5830 5830
5815 5813 5811 5810 5809 5809 5808 5807 5807 5806 5807 5809 5810 5812 5814 5815 5817 5818 5818 5820 5820 5822 5823 5824 5825 5826 5827 5828 5829 5829 5830 5830 5830 5830 5829 5829 5828 5827 5827 5826 5825 5825 5825 5824 5824 5824 5824 5824 5824
5806 5804 5802 5801 5801 5802 5801 5800 5799 5799 5800 5801 5803 5804 5806 5808 5809 5810 5811 5812 5813 5814 5815 5816 5818 5819 5820 5822 5823 5824 5824 5824 5824 5824 5824 5823 5822 5821 5820 5820 5819 5819 5818 5818 5818 5818 5817 5817 5818
5796 5794 5794 5792 5792 5794 5794 5793 5793 5793 5793 5795 5796 5798 5799 5800 5801 5802 5803 5805 5806 5807 5808 5809 5811 5813 5815 5816 5817 5818 5819 5819 5818 5818 5818 5817 5816 5815 5814 5813 5812 5812 5811 5811 5811 5810 5811 5811 5811
5784 5783 5783 5784 5784 5785 5787 5787 5787 5787 5788 5789 5790 5791 5793 5794 5794 5795 5796 5797 5799 5800 5802 5803 5806 5808 5810 5811 5812 5813 5813 5813 5813 5812 5811 5810 5810 5809 5808 5807 5805 5805 5804 5804 5804 5804 5804 5804 5804
5771 5771 5774 5775 5776 5778 5780 5781 5782 5782 5783 5784 5784 5785 5787 5788 5789 5789 5789 5791 5793 5794 5797 5799 5802 5804 5805 5806 5807 5807 5808 5808 5807 5806 5805 5804 5803 5802 5801 5800 5799 5798 5798 5798 5797 5797 5797 5797 5797
5761 5762 5763 5766 5769 5772 5774 5778 5777 5777 5778 5779 5780 5781 5782 5783 5784 5785 5785 5786 5788 5790 5792 5795 5798 5800 5800 5801 5801 5802 5802 5801 5801 5800 5799 5798 5797 5795 5794 5793 5792 5792 5792 5791 5791 5791 5791 5791 5792
5751 5753 5756 5760 5763 5766 5769 5774 5772 5773 5774 5775 5776 5777 5779 5780 5781 5781 5782 5784 5786 5788 5790 5792 5794 5795 5795 5795 5795 5795 5795 5794 5793 5793 5792 5791 5790 5789 5788 5787 5786 5786 5786 5785 5785 5785 5785 5786 5786